Regional Weather Roundup
Issued by NWS Sioux Falls, SD

Home | Current Version | Previous Version | Text Only | Print | Product List | Glossary Off
Versions: 1 2 3 4 5 6 7 8 9 10 11 12 13 14 15 16 17 18 19 20 21 22 23 24 25 26 27 28 29 30 31 32 33 34 35 36 37 38 39 40 41 42 43 44 45 46 47 48 49 50

000
ASUS43 KFSD 201402
RWRFSD

WEATHER ROUNDUP FOR SE SOUTH DAKOTA/SW MINNESOTA/NW IOWA
NATIONAL WEATHER SERVICE SIOUX FALLS SD
900 AM CDT WED AUG 20 2014

NOTE: "FAIR" INDICATES FEW OR NO CLOUDS BELOW 12,000 FEET WITH NO
SIGNIFICANT WEATHER AND OR OBSTRUCTIONS TO VISIBILITY.


SDZ038>040-050-052>070-201500-
SOUTHEAST SOUTH DAKOTA

CITY           SKY/WX    TMP DP  RH WIND       PRES   REMARKS
CHAMBERLAIN    MOSUNNY   72  66  82 SE18      29.74R
HURON          MOSUNNY   73  66  78 E9        29.75R
MADISON        FAIR      66  66 100 SE7       29.78F
MITCHELL       PTSUNNY   70  66  87 S16G25    29.75R
SIOUX FALLS    CLOUDY    71  66  84 S12       29.80S
WINNER         FAIR      73  67  81 SE10      29.75S
YANKTON        CLOUDY    68  66  94 SE12      29.78F
$$

MNZ071-072-080-081-089-090-097-098-201500-
SOUTHWEST MINNESOTA

CITY           SKY/WX    TMP DP  RH WIND       PRES   REMARKS
FAIRMONT       CLOUDY    66  45  45 MISG      29.86F
JACKSON        CLOUDY    68  63  83 SE3       29.85S
LUVERNE        CLOUDY    68  64  88 SE7       29.80F
MARSHALL       CLOUDY    68  63  83 SE7       29.81S
MONTEVIDEO     PTSUNNY   70  68  94 S6        29.82F
PIPESTONE      CLOUDY    66  63  88 S9        29.79F
REDWOOD FALLS  CLOUDY    70  65  84 E5        29.82F
TRACY          CLOUDY    71  65  82 CALM      29.83S
WINDOM         CLOUDY    68  64  88 CALM      29.85S
WORTHINGTON    CLOUDY    64   9  11 E9        29.83F
$$

IAZ001>003-012>014-020>022-031-032-NEZ013-014-SDZ071-201500-
NORTHWEST IOWA

CITY           SKY/WX    TMP DP  RH WIND       PRES   REMARKS
CHEROKEE       CLOUDY    67  67  99 S8        29.82R
DENISON        CLOUDY    68  68 100 E9        29.85F FOG
ESTHERVILLE    CLOUDY    66  64  93 E7        29.84F
LE MARS        CLOUDY    70  68  94 CALM      29.82R
ORANGE CITY    CLOUDY    72  66  83 S6        29.82R
SHELDON        CLOUDY    70  68  94 NE6G12    29.80R
SIOUX CITY     CLOUDY    71  66  84 S7        29.82R
SPENCER        CLOUDY    69  66  90 E8        29.80F
STORM LAKE     CLOUDY    66  66 100 SE9       29.84F
$$

ABBREVIATIONS USED IN REMARKS
   TC - TEMPERATURE IN CELSIUS
  WCI - WIND CHILL INDEX
   HX - HEAT INDEX
  VSB - VISIBILITY



USA.gov is the U.S. government's official web portal to all federal, state and local government web resources and services.